Regional Weather Roundup
Issued by NWS Huntsville, AL

Home | Current Version | Previous Version | Text Only | Print | Product List | Glossary On
Versions: 1 2 3 4 5 6 7 8 9 10 11 12 13 14 15 16 17 18 19 20 21 22 23 24 25 26 27 28 29 30 31 32 33 34 35 36 37 38 39 40 41 42 43 44 45 46 47 48 49 50
000
ASUS44 KHUN 120510
RWRHUN

WEATHER ROUNDUP FOR THE TENNESSEE VALLEY
NATIONAL WEATHER SERVICE HUNTSVILLE AL
1100 PM CST THU FEB 11 2016

ALZ001>004-120600-
NORTHWEST ALABAMA

CITY           SKY/WX    TMP DP  RH WIND       PRES   REMARKS
COURTLAND HCN    N/A     37 N/A N/A CALM        N/A
RUSSELLVILLE     N/A     36 N/A N/A MISG        N/A
SHOALS AIRPORT CLOUDY    37  24  59 E5        30.19F WCI  33
SHOALS TVA RES   N/A     37 N/A N/A MISG        N/A
$$

ALZ005>007-016-120600-
NORTH CENTRAL ALABAMA

CITY           SKY/WX    TMP DP  RH WIND       PRES   REMARKS
DECATUR AP     PTCLDY    37  24  59 NE6       30.20F WCI  32
HUNTSVILLE AP  MOCLDY    39  23  52 NE9       30.19F WCI  33
HUN NWS/UAH      N/A     38  22  53 NE5         N/A  WCI  34
MERIDIANVILLE  PTCLDY    34  21  60 NE3       30.20F
REDSTONE ARSN  CLOUDY    38  25  60 E5        30.18F WCI  34
VINEMONT AP    FAIR      33  25  71 CALM      30.19S
$$

ALZ008>010-120600-
NORTHEAST ALABAMA

CITY           SKY/WX    TMP DP  RH WIND       PRES   REMARKS
ALBERTVILLE    CLEAR     36  32  87 NE6       30.17S WCI  31
FORT PAYNE     PTCLDY    30  23  74 CALM      30.20S
SCOTTSBORO AP  CLOUDY    32  27  80 NE3       30.21F
SCOTTSBORO HCN   N/A     30 N/A N/A MISG        N/A
VALLEY HEAD      N/A     28 N/A N/A MISG        N/A
$$

TNZ076-096-097-120600-
SOUTHEASTERN MIDDLE TENNESSEE

CITY           SKY/WX    TMP DP  RH WIND       PRES   REMARKS
TULLAHOMA      CLEAR     30  21  69 E5        30.19F WCI  25
WINCHESTER     CLEAR     27  25  93 CALM      30.19F
$$

...SURROUNDING SITES...

CITY           SKY/WX    TMP DP  RH WIND       PRES   REMARKS
ATLANTA        PTCLDY    43  23  45 NE3       30.18S
ANNISTON       PTCLDY    41  25  53 E5        30.19S
BIRMINGHAM     PTCLDY    41  30  65 CALM      30.18F
CHATTANOOGA    PTCLDY    35  24  64 N6        30.23S WCI  30
DALTON         PTCLDY    32  27  80 CALM      30.21S
GADSDEN        PTCLDY    35  25  66 NE5       30.20S WCI  31
GOLDEN TRNGL   PTCLDY    45  27  49 NE3       30.16S
HALEYVILLE     FAIR      37  25  61 E5        30.18F WCI  33
JACKSON TN     CLOUDY    35  23  61 NE7       30.22F WCI  29
MEMPHIS        MOCLDY    42  24  49 E8        30.19R
NASHVILLE      CLOUDY    34  20  56 NE8       30.24F WCI  27
OXFORD MS      FAIR      39  25  56 E6        30.18S WCI  35
ROME           PTCLDY    32  25  75 CALM      30.20S
SAVANNAH       PTCLDY    37  25  60 N6        30.21R WCI  33
TUPELO         PTCLDY    38  24  57 N5        30.17F WCI  34
TUSCALOOSA     PTCLDY    45  30  55 CALM      30.17F
$$

...GULF COAST WEATHER...

CITY           SKY/WX    TMP DP  RH WIND       PRES   REMARKS
GULFPORT       CLEAR     60  54  80 SW7       30.19S
PASCAGOULA     CLEAR     59  55  87 SW8       30.19S
MOBILE         CLEAR     57  55  93 SW9       30.18S
GULF SHORES    CLEAR     61  58  92 W17G23    30.19F
PENSACOLA      CLEAR     62  57  83 SW9       30.18F
DESTIN         PTCLDY    64  59  83 SW14G24   30.18F
PANAMA CITY    CLEAR     63  57  83 SW15      30.21S
APPALACHICOLA  CLEAR     62  57  83 SW13      30.22F
$$




USA.gov is the U.S. government's official web portal to all federal, state and local government web resources and services.